Location: Joplin, MO
(37.0842°N, 94.5133°W)
Time: 09:28:51
(UTC+02:00)

Transit 2A - Pass Details

Date: 31 March 2023
Orbit: 591 x 964 km, 66.7° (Epoch: 03 June)

Event Time Altitude Azimuth Distance (km) Brightness Sun altitude
Exits shadow 11:46:05 82° 312° (NW) 834 6.0 -27.3°
Drops below altitude 10° 11:51:56 10° 26° (NNE) 2,550 9.4 -26.2°
Sets 11:54:34 0° 28° (NNE) 3,540 10.3 -25.8°
